| time (UTC) | temp F | wind direction | speed MPH | gust MPH | rain 1hr in | rain 24hr in | rain mn in | humidity % | barometer mb |
| 20260505130236 | 54 | 292 | 0.0 | 0.0 | 0.00 | 0.00 | 0.00 | 67 | 1007.3 |
| 20260505124735 | 55 | 281 | 0.0 | 0.0 | 0.00 | 0.00 | 0.00 | 67 | 1007.1 |
| 20260505124237 | 55 | 290 | 0.0 | 0.0 | 0.00 | 0.00 | 0.00 | 66 | 1007.1 |
| 20260505123738 | 55 | 294 | 0.0 | 0.0 | 0.00 | 0.00 | 0.00 | 65 | 1007.0 |
| 20260505123240 | 55 | 281 | 0.0 | 0.0 | 0.00 | 0.00 | 0.00 | 64 | 1007.0 |
| 20260505122738 | 55 | 311 | 0.0 | 0.0 | 0.00 | 0.00 | 0.00 | 64 | 1007.0 |
| 20260505122242 | 55 | 299 | 0.0 | 0.0 | 0.00 | 0.00 | 0.00 | 65 | 1006.9 |
| 20260505121752 | 55 | 298 | 0.0 | 0.0 | 0.00 | 0.00 | 0.00 | 70 | 1007.1 |
| 20260505121232 | 56 | 307 | 0.0 | 0.0 | 0.00 | 0.00 | 0.00 | 70 | 1006.9 |
| 20260505120735 | 56 | 280 | 0.0 | 0.0 | 0.00 | 0.00 | 0.00 | 69 | 1006.8 |
| 20260505120236 | 56 | 299 | 0.0 | 0.0 | 0.00 | 0.00 | 0.00 | 67 | 1006.8 |
| 20260505115737 | 56 | 294 | 0.0 | 0.0 | 0.00 | 0.00 | 0.00 | 65 | 1006.9 |
| 20260505115239 | 56 | 278 | 0.0 | 0.0 | 0.00 | 0.00 | 0.00 | 64 | 1006.9 |
| 20260505114730 | 57 | 275 | 0.0 | 0.0 | 0.00 | 0.00 | 0.00 | 65 | 1006.9 |
| 20260505114231 | 57 | 294 | 0.0 | 0.0 | 0.00 | 0.00 | 0.00 | 64 | 1007.0 |
| 20260505113731 | 57 | 292 | 0.0 | 0.0 | 0.00 | 0.00 | 0.00 | 63 | 1007.0 |
| 20260505113235 | 57 | 267 | 0.0 | 0.0 | 0.00 | 0.00 | 0.00 | 64 | 1006.9 |
| 20260505112737 | 58 | 244 | 0.0 | 0.0 | 0.00 | 0.00 | 0.00 | 64 | 1007.0 |
| 20260505112239 | 58 | 289 | 0.0 | 0.0 | 0.00 | 0.00 | 0.00 | 63 | 1007.0 |
| 20260505111749 | 58 | 289 | 0.0 | 0.0 | 0.00 | 0.00 | 0.00 | 62 | 1006.9 |
| 20260505111227 | 58 | 275 | 0.0 | 0.0 | 0.00 | 0.00 | 0.00 | 62 | 1007.0 |
| 20260505110726 | 58 | 298 | 0.0 | 0.0 | 0.00 | 0.00 | 0.00 | 62 | 1007.0 |
| 20260505110226 | 58 | 321 | 0.0 | 0.0 | 0.00 | 0.00 | 0.00 | 61 | 1006.9 |
| 20260505101735 | 59 | 272 | 0.0 | 0.0 | 0.00 | 0.00 | 0.00 | 61 | 1006.5 |
| 20260505101256 | 59 | 282 | 0.0 | 0.0 | 0.00 | 0.00 | 0.00 | 61 | 1006.4 |
| 20260505100738 | 59 | 301 | 0.0 | 0.0 | 0.00 | 0.00 | 0.00 | 61 | 1006.3 |
| 20260505100301 | 59 | 305 | 0.0 | 0.0 | 0.00 | 0.00 | 0.00 | 61 | 1006.3 |
| 20260505095739 | 59 | 284 | 0.0 | 0.0 | 0.00 | 0.00 | 0.00 | 61 | 1006.2 |
| 20260505095243 | 59 | 297 | 0.0 | 0.0 | 0.00 | 0.00 | 0.00 | 61 | 1006.2 |
| 20260505094732 | 59 | 297 | 0.0 | 0.0 | 0.00 | 0.00 | 0.00 | 61 | 1006.2 |
| 20260505094234 | 59 | 281 | 0.0 | 0.0 | 0.00 | 0.00 | 0.00 | 61 | 1006.0 |
| 20260505093735 | 59 | 290 | 0.0 | 0.0 | 0.00 | 0.00 | 0.00 | 61 | 1006.2 |
| 20260505093235 | 59 | 293 | 0.0 | 0.0 | 0.00 | 0.00 | 0.00 | 60 | 1006.0 |
| 20260505092753 | 59 | 260 | 0.0 | 0.0 | 0.00 | 0.00 | 0.00 | 58 | 1006.1 |
| 20260505092253 | 59 | 273 | 0.0 | 0.0 | 0.00 | 0.00 | 0.00 | 59 | 1006.0 |
| 20260505091744 | 60 | 260 | 0.0 | 0.0 | 0.00 | 0.00 | 0.00 | 57 | 1006.1 |
| 20260505091244 | 60 | 268 | 0.0 | 0.0 | 0.00 | 0.00 | 0.00 | 57 | 1006.1 |
| 20260505090744 | 60 | 294 | 0.0 | 0.0 | 0.00 | 0.00 | 0.00 | 56 | 1006.1 |
| 20260505090244 | 60 | 269 | 0.0 | 0.0 | 0.00 | 0.00 | 0.00 | 58 | 1006.1 |
| 20260505085744 | 61 | 292 | 0.0 | 0.0 | 0.00 | 0.00 | 0.00 | 58 | 1006.1 |
| 20260505085245 | 61 | 285 | 0.0 | 0.0 | 0.00 | 0.00 | 0.00 | 58 | 1006.0 |
| 20260505084735 | 61 | 314 | 0.0 | 0.0 | 0.00 | 0.00 | 0.00 | 57 | 1006.1 |
| 20260505084239 | 61 | 308 | 0.0 | 0.0 | 0.00 | 0.00 | 0.00 | 57 | 1006.1 |
| 20260505083737 | 61 | 317 | 0.0 | 0.0 | 0.00 | 0.00 | 0.00 | 57 | 1006.1 |
| 20260505083238 | 61 | 300 | 0.0 | 0.0 | 0.00 | 0.00 | 0.00 | 57 | 1006.1 |
| 20260505082739 | 61 | 287 | 0.0 | 0.0 | 0.00 | 0.00 | 0.00 | 57 | 1006.1 |
| 20260505082242 | 61 | 293 | 0.0 | 0.0 | 0.00 | 0.00 | 0.00 | 57 | 1006.0 |
| 20260505081732 | 61 | 300 | 0.0 | 0.0 | 0.00 | 0.00 | 0.00 | 58 | 1006.0 |
| 20260505081233 | 61 | 295 | 0.0 | 0.0 | 0.00 | 0.00 | 0.00 | 58 | 1006.0 |
| 20260505080755 | 61 | 278 | 0.0 | 0.0 | 0.00 | 0.00 | 0.00 | 57 | 1006.0 |
| 20260505080255 | 61 | 279 | 0.0 | 0.0 | 0.00 | 0.00 | 0.00 | 56 | 1006.1 |
| 20260505075735 | 61 | 276 | 0.0 | 0.0 | 0.00 | 0.00 | 0.00 | 54 | 1006.1 |
| 20260505075237 | 62 | 302 | 0.0 | 0.0 | 0.00 | 0.00 | 0.00 | 53 | 1006.1 |
| 20260505074728 | 62 | 324 | 0.0 | 0.0 | 0.00 | 0.00 | 0.00 | 53 | 1006.1 |
| 20260505074228 | 62 | 311 | 0.0 | 0.0 | 0.00 | 0.00 | 0.00 | 53 | 1005.9 |
| 20260505073730 | 63 | 313 | 0.0 | 0.0 | 0.00 | 0.00 | 0.00 | 52 | 1005.9 |
| 20260505073232 | 63 | 313 | 0.0 | 0.0 | 0.00 | 0.00 | 0.00 | 51 | 1005.9 |
| 20260505072755 | 63 | 294 | 0.0 | 1.0 | 0.00 | 0.00 | 0.00 | 51 | 1005.8 |
| 20260505072236 | 63 | 308 | 0.0 | 1.0 | 0.00 | 0.00 | 0.00 | 51 | 1005.8 |
| 20260505071732 | 63 | 307 | 0.0 | 0.0 | 0.00 | 0.00 | 0.00 | 51 | 1005.8 |
| 20260505071233 | 63 | 317 | 0.0 | 0.0 | 0.00 | 0.00 | 0.00 | 51 | 1005.7 |
| 20260505070737 | 63 | 316 | 0.0 | 0.0 | 0.00 | 0.00 | 0.00 | 53 | 1005.7 |
| 20260505070259 | 63 | 301 | 0.0 | 0.0 | 0.00 | 0.00 | 0.00 | 54 | 1005.7 |
| 20260505065738 | 63 | 304 | 0.0 | 0.0 | 0.00 | 0.00 | 0.00 | 54 | 1005.7 |
| 20260505065239 | 64 | 297 | 0.0 | 0.0 | 0.00 | 0.00 | 0.00 | 49 | 1005.7 |
| 20260505064729 | 64 | 303 | 0.0 | 0.0 | 0.00 | 0.00 | 0.00 | 49 | 1005.6 |
| 20260505064230 | 64 | 313 | 0.0 | 0.0 | 0.00 | 0.00 | 0.00 | 49 | 1005.6 |
| 20260505063732 | 64 | 311 | 0.0 | 0.0 | 0.00 | 0.00 | 0.00 | 49 | 1005.6 |
| 20260505063231 | 64 | 324 | 0.0 | 0.0 | 0.00 | 0.00 | 0.00 | 49 | 1005.7 |
| 20260505062752 | 64 | 308 | 0.0 | 0.0 | 0.00 | 0.00 | 0.00 | 49 | 1005.7 |
| 20260505062253 | 65 | 322 | 0.0 | 0.0 | 0.00 | 0.00 | 0.00 | 48 | 1005.7 |
| 20260505061743 | 65 | 317 | 0.0 | 0.0 | 0.00 | 0.00 | 0.00 | 49 | 1005.7 |
| 20260505061243 | 65 | 302 | 0.0 | 0.0 | 0.00 | 0.00 | 0.00 | 49 | 1005.6 |
| 20260505060744 | 65 | 318 | 0.0 | 0.0 | 0.00 | 0.00 | 0.00 | 49 | 1005.6 |
| 20260505060246 | 65 | 312 | 0.0 | 0.0 | 0.00 | 0.00 | 0.00 | 49 | 1005.5 |
| 20260505055744 | 65 | 323 | 0.0 | 0.0 | 0.00 | 0.00 | 0.00 | 48 | 1005.6 |
| 20260505055247 | 65 | 313 | 0.0 | 0.0 | 0.00 | 0.00 | 0.00 | 48 | 1005.4 |
| 20260505054759 | 65 | 316 | 0.0 | 0.0 | 0.00 | 0.00 | 0.00 | 48 | 1005.6 |
| 20260505054244 | 66 | 297 | 0.0 | 0.0 | 0.00 | 0.00 | 0.00 | 47 | 1005.6 |
| 20260505053725 | 65 | 318 | 0.0 | 0.0 | 0.00 | 0.00 | 0.00 | 45 | 1005.5 |
| 20260505053226 | 66 | 317 | 0.0 | 0.0 | 0.00 | 0.00 | 0.00 | 46 | 1005.6 |
| 20260505052727 | 66 | 321 | 0.0 | 0.0 | 0.00 | 0.00 | 0.00 | 45 | 1005.5 |
| 20260505052247 | 66 | 302 | 0.0 | 0.0 | 0.00 | 0.00 | 0.00 | 44 | 1005.5 |
| 20260505051740 | 66 | 284 | 0.0 | 0.0 | 0.00 | 0.00 | 0.00 | 46 | 1005.6 |
| 20260505051302 | 67 | 289 | 0.0 | 0.0 | 0.00 | 0.00 | 0.00 | 46 | 1005.5 |
| 20260505050742 | 67 | 296 | 0.0 | 0.0 | 0.00 | 0.00 | 0.00 | 47 | 1005.4 |
| 20260505050242 | 67 | 283 | 0.0 | 0.0 | 0.00 | 0.00 | 0.00 | 47 | 1005.4 |
| 20260505041736 | 68 | 298 | 0.0 | 8.0 | 0.00 | 0.00 | 0.00 | 46 | 1005.2 |
| 20260505041258 | 69 | 280 | 0.0 | 8.0 | 0.00 | 0.00 | 0.00 | 46 | 1005.1 |
| 20260505040757 | 68 | 294 | 0.0 | 0.0 | 0.00 | 0.00 | 0.00 | 46 | 1005.1 |
| 20260505040258 | 68 | 294 | 0.0 | 0.0 | 0.00 | 0.00 | 0.00 | 46 | 1005.0 |
| 20260505035757 | 68 | 311 | 0.0 | 0.0 | 0.00 | 0.00 | 0.00 | 46 | 1005.0 |
| 20260505035239 | 69 | 297 | 0.0 | 0.0 | 0.00 | 0.00 | 0.00 | 46 | 1004.9 |
| 20260505034729 | 68 | 303 | 0.0 | 0.0 | 0.00 | 0.00 | 0.00 | 47 | 1004.9 |
| 20260505034229 | 68 | 287 | 0.0 | 3.0 | 0.00 | 0.00 | 0.00 | 47 | 1004.9 |
| 20260505033751 | 68 | 265 | 0.0 | 3.0 | 0.00 | 0.00 | 0.00 | 47 | 1004.8 |
| 20260505033231 | 68 | 303 | 0.0 | 0.0 | 0.00 | 0.00 | 0.00 | 48 | 1004.8 |
| 20260505032732 | 68 | 312 | 0.0 | 0.0 | 0.00 | 0.00 | 0.00 | 49 | 1004.7 |
| 20260505032313 | 68 | 313 | 0.0 | 0.0 | 0.00 | 0.00 | 0.00 | 49 | 1004.7 |
| 20260505031744 | 68 | 277 | 0.0 | 0.0 | 0.00 | 0.00 | 0.00 | 48 | 1004.7 |
| 20260505031244 | 68 | 311 | 0.0 | 0.0 | 0.00 | 0.00 | 0.00 | 49 | 1004.7 |
| 20260505030743 | 69 | 301 | 0.0 | 3.0 | 0.00 | 0.00 | 0.00 | 48 | 1004.7 |
| 20260505030244 | 69 | 308 | 0.0 | 3.0 | 0.00 | 0.00 | 0.00 | 47 | 1004.6 |
| 20260505025746 | 69 | 315 | 0.0 | 2.0 | 0.00 | 0.00 | 0.00 | 48 | 1004.5 |
| 20260505025307 | 70 | 316 | 0.0 | 0.0 | 0.00 | 0.00 | 0.00 | 48 | 1004.5 |
| 20260505024757 | 70 | 320 | 0.0 | 0.0 | 0.00 | 0.00 | 0.00 | 47 | 1004.4 |
| 20260505024235 | 71 | 309 | 0.0 | 0.0 | 0.00 | 0.00 | 0.00 | 45 | 1004.5 |
| 20260505023736 | 71 | 317 | 0.0 | 0.0 | 0.00 | 0.00 | 0.00 | 44 | 1004.4 |
| 20260505023236 | 72 | 310 | 0.0 | 1.0 | 0.00 | 0.00 | 0.00 | 43 | 1004.4 |
| 20260505022757 | 72 | 323 | 0.0 | 1.0 | 0.00 | 0.00 | 0.00 | 42 | 1004.3 |
| 20260505022242 | 73 | 313 | 0.0 | 0.0 | 0.00 | 0.00 | 0.00 | 41 | 1004.4 |
| 20260505021731 | 73 | 310 | 0.0 | 0.0 | 0.00 | 0.00 | 0.00 | 41 | 1004.5 |
| 20260505021231 | 73 | 313 | 0.0 | 1.0 | 0.00 | 0.00 | 0.00 | 41 | 1004.5 |
| 20260505020732 | 73 | 289 | 0.0 | 0.0 | 0.00 | 0.00 | 0.00 | 41 | 1004.5 |
| 20260505020232 | 74 | 326 | 0.0 | 5.0 | 0.00 | 0.00 | 0.00 | 40 | 1004.5 |
| 20260505015731 | 74 | 303 | 0.0 | 5.0 | 0.00 | 0.00 | 0.00 | 39 | 1004.5 |
| 20260505015254 | 74 | 307 | 0.0 | 4.0 | 0.00 | 0.00 | 0.00 | 39 | 1004.5 |
| 20260505014742 | 75 | 303 | 0.0 | 4.0 | 0.00 | 0.00 | 0.00 | 38 | 1004.7 |
| 20260505014242 | 75 | 320 | 0.0 | 3.0 | 0.00 | 0.00 | 0.00 | 38 | 1004.5 |
| 20260505013804 | 75 | 326 | 0.0 | 1.0 | 0.00 | 0.00 | 0.00 | 37 | 1004.6 |
| 20260505013244 | 75 | 321 | 0.0 | 0.0 | 0.00 | 0.00 | 0.00 | 37 | 1004.6 |
| 20260505012806 | 75 | 304 | 0.0 | 1.0 | 0.00 | 0.00 | 0.00 | 38 | 1004.6 |
| 20260505012246 | 76 | 323 | 0.0 | 1.0 | 0.00 | 0.00 | 0.00 | 37 | 1004.5 |
| 20260505011737 | 76 | 328 | 0.0 | 1.0 | 0.00 | 0.00 | 0.00 | 36 | 1004.6 |
| 20260505011237 | 76 | 315 | 0.0 | 3.0 | 0.00 | 0.00 | 0.00 | 36 | 1004.6 |
| 20260505010736 | 76 | 321 | 0.0 | 3.0 | 0.00 | 0.00 | 0.00 | 36 | 1004.6 |
| 20260505010242 | 76 | 311 | 0.0 | 5.0 | 0.00 | 0.00 | 0.00 | 36 | 1004.7 |
| 20260505005803 | 77 | 316 | 0.0 | 5.0 | 0.00 | 0.00 | 0.00 | 35 | 1004.7 |
| 20260505005304 | 77 | 332 | 0.0 | 6.0 | 0.00 | 0.00 | 0.00 | 35 | 1004.7 |
| 20260505004733 | 77 | 331 | 1.0 | 6.0 | 0.00 | 0.00 | 0.00 | 34 | 1004.8 |
| 20260505004235 | 77 | 334 | 0.0 | 4.0 | 0.00 | 0.00 | 0.00 | 35 | 1004.7 |
| 20260505003734 | 78 | 331 | 0.0 | 4.0 | 0.00 | 0.00 | 0.00 | 33 | 1004.7 |
| 20260505003256 | 78 | 297 | 0.0 | 0.0 | 0.00 | 0.00 | 0.00 | 33 | 1004.7 |
| 20260505002736 | 78 | 335 | 0.0 | 0.0 | 0.00 | 0.00 | 0.00 | 33 | 1004.8 |
| 20260505002239 | 78 | 294 | 0.0 | 0.0 | 0.00 | 0.00 | 0.00 | 33 | 1004.8 |
| 20260505001729 | 78 | 323 | 0.0 | 0.0 | 0.00 | 0.00 | 0.00 | 33 | 1004.8 |
| 20260505001250 | 79 | 301 | 0.0 | 6.0 | 0.00 | 0.00 | 0.00 | 32 | 1004.9 |
| 20260505000731 | 79 | 319 | 1.0 | 6.0 | 0.00 | 0.00 | 0.00 | 30 | 1005.0 |
| 20260505000233 | 79 | 317 | 0.0 | 2.0 | 0.00 | 0.00 | 0.00 | 29 | 1004.9 |
| 20260504235733 | 79 | 311 | 0.0 | 2.0 | 0.00 | 0.00 | 0.00 | 27 | 1004.9 |
| 20260504235254 | 80 | 316 | 0.0 | 2.0 | 0.00 | 0.00 | 0.00 | 27 | 1004.9 |
| 20260504234743 | 80 | 327 | 0.0 | 1.0 | 0.00 | 0.00 | 0.00 | 27 | 1004.8 |
| 20260504234226 | 80 | 295 | 0.0 | 0.0 | 0.00 | 0.00 | 0.00 | 27 | 1004.8 |
| 20260504233730 | 81 | 304 | 0.0 | 0.0 | 0.00 | 0.00 | 0.00 | 27 | 1004.8 |
| 20260504233230 | 80 | 288 | 0.0 | 1.0 | 0.00 | 0.00 | 0.00 | 27 | 1004.9 |
| 20260504232730 | 80 | 286 | 0.0 | 1.0 | 0.00 | 0.00 | 0.00 | 27 | 1004.8 |
| 20260504232252 | 81 | 314 | 0.0 | 0.0 | 0.00 | 0.00 | 0.00 | 27 | 1004.9 |
| 20260504231743 | 81 | 305 | 0.0 | 0.0 | 0.00 | 0.00 | 0.00 | 27 | 1004.9 |
| 20260504231243 | 81 | 317 | 0.0 | 0.0 | 0.00 | 0.00 | 0.00 | 28 | 1004.8 |
| 20260504230742 | 82 | 313 | 0.0 | 0.0 | 0.00 | 0.00 | 0.00 | 26 | 1004.9 |
| 20260504230243 | 82 | 331 | 0.0 | 0.0 | 0.00 | 0.00 | 0.00 | 27 | 1005.0 |
| 20260504225741 | 81 | 356 | 0.0 | 0.0 | 0.00 | 0.00 | 0.00 | 25 | 1005.0 |
| 20260504225244 | 81 | 339 | 0.0 | 0.0 | 0.00 | 0.00 | 0.00 | 25 | 1005.1 |
| 20260504224736 | 81 | 351 | 0.0 | 5.0 | 0.00 | 0.00 | 0.00 | 26 | 1005.1 |
| 20260504224236 | 81 | 332 | 0.0 | 0.0 | 0.00 | 0.00 | 0.00 | 27 | 1005.1 |
| 20260504223756 | 81 | 275 | 0.0 | 0.0 | 0.00 | 0.00 | 0.00 | 27 | 1005.2 |
| 20260504223255 | 82 | 325 | 0.0 | 0.0 | 0.00 | 0.00 | 0.00 | 27 | 1005.2 |
| 20260504222735 | 82 | 351 | 0.0 | 0.0 | 0.00 | 0.00 | 0.00 | 27 | 1005.3 |
| 20260504222238 | 82 | 330 | 0.0 | 12.0 | 0.00 | 0.00 | 0.00 | 27 | 1005.4 |
| 20260504221729 | 82 | 346 | 1.0 | 12.0 | 0.00 | 0.00 | 0.00 | 27 | 1005.4 |
| 20260504221230 | 82 | 317 | 0.0 | 0.0 | 0.00 | 0.00 | 0.00 | 27 | 1005.4 |
| 20260504220752 | 82 | 277 | 0.0 | 0.0 | 0.00 | 0.00 | 0.00 | 27 | 1005.4 |
| 20260504220252 | 82 | 301 | 0.0 | 0.0 | 0.00 | 0.00 | 0.00 | 27 | 1005.5 |
| 20260504215730 | 82 | 321 | 0.0 | 0.0 | 0.00 | 0.00 | 0.00 | 25 | 1005.5 |
| 20260504215312 | 82 | 338 | 0.0 | 0.0 | 0.00 | 0.00 | 0.00 | 26 | 1005.5 |
| 20260504214727 | 83 | 343 | 0.0 | 0.0 | 0.00 | 0.00 | 0.00 | 26 | 1005.6 |
| 20260504214227 | 83 | 341 | 0.0 | 0.0 | 0.00 | 0.00 | 0.00 | 24 | 1005.6 |
| 20260504213747 | 83 | 15 | 0.0 | 0.0 | 0.00 | 0.00 | 0.00 | 23 | 1005.6 |
| 20260504213236 | 82 | 310 | 0.0 | 0.0 | 0.00 | 0.00 | 0.00 | 25 | 1005.7 |
| 20260504212755 | 81 | 92 | 0.0 | 0.0 | 0.00 | 0.00 | 0.00 | 24 | 1005.7 |
| 20260504212251 | 82 | 99 | 0.0 | 0.0 | 0.00 | 0.00 | 0.00 | 23 | 1005.7 |
| 20260504211800 | 82 | 86 | 0.0 | 0.0 | 0.00 | 0.00 | 0.00 | 23 | 1005.8 |
| 20260504211238 | 82 | 93 | 0.0 | 0.0 | 0.00 | 0.00 | 0.00 | 23 | 1005.8 |
| 20260504210736 | 82 | 62 | 0.0 | 0.0 | 0.00 | 0.00 | 0.00 | 22 | 1005.9 |
| 20260504210228 | 82 | 41 | 0.0 | 0.0 | 0.00 | 0.00 | 0.00 | 24 | 1006.0 |
| 20260504205806 | 82 | 22 | 0.0 | 8.0 | 0.00 | 0.00 | 0.00 | 24 | 1005.9 |
| 20260504205257 | 82 | 26 | 1.0 | 8.0 | 0.00 | 0.00 | 0.00 | 25 | 1006.0 |
| 20260504204756 | 82 | 13 | 0.0 | 0.0 | 0.00 | 0.00 | 0.00 | 25 | 1006.0 |
| 20260504204243 | 81 | 22 | 0.0 | 0.0 | 0.00 | 0.00 | 0.00 | 26 | 1006.2 |
| 20260504203753 | 81 | 77 | 0.0 | 0.0 | 0.00 | 0.00 | 0.00 | 26 | 1006.1 |
| 20260504203249 | 82 | 30 | 0.0 | 0.0 | 0.00 | 0.00 | 0.00 | 26 | 1006.2 |
| 20260504202737 | 81 | 36 | 0.0 | 0.0 | 0.00 | 0.00 | 0.00 | 27 | 1006.2 |
| 20260504202249 | 81 | 0 | 0.0 | 0.0 | 0.00 | 0.00 | 0.00 | 25 | 1006.2 |
| 20260504201736 | 81 | 56 | 0.0 | 0.0 | 0.00 | 0.00 | 0.00 | 25 | 1006.2 |
| 20260504201232 | 81 | 353 | 0.0 | 0.0 | 0.00 | 0.00 | 0.00 | 27 | 1006.3 |
| 20260504200752 | 81 | 272 | 0.0 | 0.0 | 0.00 | 0.00 | 0.00 | 27 | 1006.2 |
| 20260504200232 | 80 | 338 | 0.0 | 0.0 | 0.00 | 0.00 | 0.00 | 27 | 1006.3 |
| 20260504195753 | 80 | 7 | 0.0 | 0.0 | 0.00 | 0.00 | 0.00 | 27 | 1006.4 |
| 20260504195243 | 79 | 123 | 0.0 | 0.0 | 0.00 | 0.00 | 0.00 | 28 | 1006.3 |
| 20260504194732 | 79 | 0 | 0.0 | 0.0 | 0.00 | 0.00 | 0.00 | 28 | 1006.5 |
| 20260504194232 | 80 | 358 | 0.0 | 3.0 | 0.00 | 0.00 | 0.00 | 28 | 1006.5 |
| 20260504193751 | 80 | 39 | 0.0 | 3.0 | 0.00 | 0.00 | 0.00 | 29 | 1006.5 |
| 20260504193244 | 80 | 70 | 0.0 | 1.0 | 0.00 | 0.00 | 0.00 | 27 | 1006.4 |
| 20260504192739 | 79 | 52 | 0.0 | 1.0 | 0.00 | 0.00 | 0.00 | 29 | 1006.5 |
| 20260504192254 | 79 | 54 | 0.0 | 1.0 | 0.00 | 0.00 | 0.00 | 28 | 1006.4 |
| 20260504191740 | 79 | 43 | 0.0 | 0.0 | 0.00 | 0.00 | 0.00 | 28 | 1006.4 |
| 20260504191255 | 79 | 36 | 0.0 | 0.0 | 0.00 | 0.00 | 0.00 | 29 | 1006.5 |
| 20260504190744 | 79 | 40 | 0.0 | 1.0 | 0.00 | 0.00 | 0.00 | 31 | 1006.6 |
| 20260504190255 | 79 | 25 | 0.0 | 1.0 | 0.00 | 0.00 | 0.00 | 31 | 1006.5 |
| 20260504185742 | 78 | 41 | 0.0 | 0.0 | 0.00 | 0.00 | 0.00 | 31 | 1006.6 |
| 20260504185255 | 77 | 31 | 0.0 | 0.0 | 0.00 | 0.00 | 0.00 | 31 | 1006.6 |
| 20260504184748 | 77 | 39 | 0.0 | 0.0 | 0.00 | 0.00 | 0.00 | 31 | 1006.7 |
| 20260504184240 | 76 | 305 | 0.0 | 0.0 | 0.00 | 0.00 | 0.00 | 33 | 1006.6 |
| 20260504183742 | 76 | 304 | 0.0 | 0.0 | 0.00 | 0.00 | 0.00 | 33 | 1006.7 |
| 20260504183242 | 75 | 313 | 0.0 | 0.0 | 0.00 | 0.00 | 0.00 | 33 | 1006.6 |
| 20260504182743 | 75 | 321 | 0.0 | 0.0 | 0.00 | 0.00 | 0.00 | 33 | 1006.6 |
| 20260504182244 | 75 | 344 | 0.0 | 0.0 | 0.00 | 0.00 | 0.00 | 33 | 1006.6 |
| 20260504181734 | 75 | 334 | 0.0 | 0.0 | 0.00 | 0.00 | 0.00 | 33 | 1006.7 |
| 20260504181237 | 74 | 305 | 0.0 | 0.0 | 0.00 | 0.00 | 0.00 | 33 | 1006.6 |
| 20260504180737 | 74 | 321 | 0.0 | 0.0 | 0.00 | 0.00 | 0.00 | 33 | 1006.6 |
| 20260504180236 | 74 | 327 | 0.0 | 0.0 | 0.00 | 0.00 | 0.00 | 33 | 1006.7 |
| 20260504175758 | 73 | 307 | 0.0 | 0.0 | 0.00 | 0.00 | 0.00 | 33 | 1006.6 |
| 20260504175240 | 73 | 335 | 0.0 | 0.0 | 0.00 | 0.00 | 0.00 | 36 | 1006.6 |
| 20260504174750 | 73 | 315 | 0.0 | 0.0 | 0.00 | 0.00 | 0.00 | 34 | 1006.6 |
| 20260504174251 | 72 | 324 | 0.0 | 0.0 | 0.00 | 0.00 | 0.00 | 35 | 1006.6 |
| 20260504173730 | 72 | 323 | 0.0 | 2.0 | 0.00 | 0.00 | 0.00 | 35 | 1006.5 |
| 20260504173230 | 72 | 320 | 0.0 | 2.0 | 0.00 | 0.00 | 0.00 | 36 | 1006.4 |
| 20260504172750 | 72 | 319 | 0.0 | 5.0 | 0.00 | 0.00 | 0.00 | 37 | 1006.6 |
| 20260504172251 | 71 | 334 | 0.0 | 5.0 | 0.00 | 0.00 | 0.00 | 36 | 1006.6 |
| 20260504171725 | 71 | 309 | 0.0 | 4.0 | 0.00 | 0.00 | 0.00 | 36 | 1006.5 |
| 20260504171246 | 71 | 304 | 0.0 | 3.0 | 0.00 | 0.00 | 0.00 | 37 | 1006.5 |
| 20260504170805 | 71 | 300 | 0.0 | 4.0 | 0.00 | 0.00 | 0.00 | 37 | 1006.6 |
| 20260504170244 | 72 | 313 | 0.0 | 6.0 | 0.00 | 0.00 | 0.00 | 36 | 1006.5 |
| 20260504160230 | 69 | 274 | 0.0 | 0.0 | 0.00 | 0.00 | 0.00 | 42 | 1006.5 |
| 20260504150754 | 67 | 282 | 0.0 | 0.0 | 0.00 | 0.00 | 0.00 | 44 | 1006.5 |
| 20260504150232 | 67 | 313 | 0.0 | 0.0 | 0.00 | 0.00 | 0.00 | 44 | 1006.4 |
| 20260504141225 | 62 | 285 | 0.0 | 0.0 | 0.00 | 0.00 | 0.00 | 52 | 1006.0 |
| 20260504140722 | 61 | 288 | 0.0 | 0.0 | 0.00 | 0.00 | 0.00 | 54 | 1006.0 |
| 20260504140242 | 59 | 286 | 0.0 | 0.0 | 0.00 | 0.00 | 0.00 | 57 | 1006.1 |